Regional Weather Roundup
Issued by NWS

Home | Current Version | Previous Version | Graphics & Text | Print | Product List | Glossary On
Versions: 1 2 3 4 5 6 7 8 9 10 11 12 13 14 15 16 17 18 19 20 21 22 23 24 25 26 27
000
ASUS45 KBOU 301907
RWRCO

WEATHER ROUNDUP FOR COLORADO
NATIONAL WEATHER SERVICE DENVER/BOULDER CO
100 PM MDT THU OCT 30 2014

NOTE: "FAIR" INDICATES FEW OR NO CLOUDS BELOW 12000 FEET WITH NO
SIGNIFICANT WEATHER AND/OR OBSTRUCTIONS TO VISIBILITY.

COZ001>005-013-030-031-302000-
...NORTHWEST COLORADO...

CITY           SKY/WX    TMP DP  RH WIND       PRES   REMARKS
CRAIG          SUNNY     61  27  27 NW3       30.37F
HAYDEN         SUNNY     55  25  30 CALM      30.38F
MEEKER         SUNNY     61  25  25 SW5       30.36F
MOUNT WERNER   NOT AVBL
STEAMBOAT SPGS SUNNY     54  27  34 S5        30.39F
WALDEN         SUNNY     50  21  32 CALM      30.41F
$$

COZ006>008-011-302000-
...WEST CENTRAL VALLEYS...

CITY           SKY/WX    TMP DP  RH WIND       PRES   REMARKS
GRAND JUNCTION SUNNY     61  22  22 S8        30.32F
MONTROSE       SUNNY     60  23  24 N7        30.36F
EAGLE          MOSUNNY   54  19  26 CALM      30.42F
RIFLE          SUNNY     59  19  21 CALM      30.35F
DELTA          SUNNY     62  19  19 CALM      30.34F
NUCLA          SUNNY     59  19  21 NW5       30.37F
$$

COZ017>023-064>068-302000-
...SOUTHWEST COLORADO...

CITY           SKY/WX    TMP DP  RH WIND       PRES   REMARKS
DURANGO        SUNNY     61  18  18 VRB3      30.35F
CORTEZ         SUNNY     64  19  17 SW14      30.33F
PAGOSA SPRINGS SUNNY     61  17  18 CALM      30.39F
TELLURIDE      SUNNY     60  19  20 W7        30.46F
WOLF CREEK PAS SUNNY     46  19  34 SW13G18   30.59F
$$

COZ009-010-012-014-032>034-037-058>063-302000-
...CENTRAL COLORADO...

CITY           SKY/WX    TMP DP  RH WIND       PRES   REMARKS
ASPEN          SUNNY     59  21  23 N6        30.40F
BUENA VISTA    SUNNY     58  17  20 SE8       30.39F
COPPER MTN     SUNNY     41  19  42 W14G29    30.57F
BERTHOUD PASS  FAIR      32  28  86 NW23G36   30.56S WCI  19
COTTONWOOD PAS SUNNY     54  14  20 SE5       30.47F
GUNNISON       SUNNY     52  18  25 CALM      30.44F
KREMMLING      SUNNY     55  21  26 CALM        N/A
LEADVILLE      SUNNY     51  17  26 NW10G17   30.47F
SALIDA         SUNNY     60  17  18 SE5       30.45F
SUNLIGHT       SUNNY     46  23  39 N5        30.57S
WILKERSON PASS NOT AVBL
$$

COZ069>075-302000-
...SAN LUIS VALLEY/SANGRE DE CRISTO MOUNTAINS...

CITY           SKY/WX    TMP DP  RH WIND       PRES   REMARKS
ALAMOSA        SUNNY     59  14  17 S3        30.39F
LA VETA PASS   SUNNY     46  19  34 N5        30.51F
SAGUACHE       SUNNY     59  21  23 SE3       30.40F
$$

COZ035-036-038>040-302000-
...NORTHERN COLORADO FRONT RANGE...

CITY           SKY/WX    TMP DP  RH WIND       PRES   REMARKS
DENVER INTL AP MOSUNNY   58  25  28 SE7       30.35F
DMNS CITY PARK   N/A     61  26  26 NE5G14    30.33F
AURORA         MOSUNNY   58  26  29 VRB3      30.36F
FRONT RANGE AP NOT AVBL
ERIE MUNI ARPT SUNNY     60  24  24 S6        30.34F
BOULDER MUN AP SUNNY     61  27  27 E3        30.34F
CENTENNIAL     MOSUNNY   57  26  30 SE5       30.35F
BROOMFIELD     MOSUNNY   57  27  30 S7        30.36F
FORT COLLINS   SUNNY     59  27  29 S8        30.36F
LONGMONT       SUNNY     63  27  25 SE3       30.36F
$$

COZ041-046-047-076>085-087-088-302000-
...PIKES PEAK/PALMER DIVIDE AND SOUTHERN FOOTHILLS...

CITY           SKY/WX    TMP DP  RH WIND       PRES   REMARKS
COLO. SPRINGS  MOSUNNY   58  23  26 S8        30.38F
A. F. ACADEMY  SUNNY     56  22  26 S8G20     30.38F
ELLICOTT       SUNNY     57  23  26 S8        30.38F
FALCON         SUNNY     56  23  27 SE6       30.40F
FORT CARSON    SUNNY     59  24  25 SE7       30.37F
LIMON          SUNNY     59  24  26 NW9       30.36F
MONUMENT HILL  SUNNY     54  25  32 E3        30.38F
TRINIDAD       SUNNY     61  22  22 E8        30.37F
$$

COZ042>045-048>051-090-091-302000-
...NORTHEAST COLORADO...

CITY           SKY/WX    TMP DP  RH WIND       PRES   REMARKS
GREELEY ARPT   SUNNY     61  28  29 S6        30.35F
AKRON          SUNNY     58  27  30 NW8       30.35F
BURLINGTON     SUNNY     62  25  24 NW17G23   30.33F
WRAY           SUNNY     67  26  21 N20G25    30.30F
STERLING       NOT AVBL
HOLYOKE        SUNNY     64  28  25 NW18      30.30F
FORT MORGAN    SUNNY     61  25  25 N6        30.34F
$$

COZ086-089-092>099-302000-
...SOUTHEAST COLORADO...

CITY           SKY/WX    TMP DP  RH WIND       PRES   REMARKS
PUEBLO         SUNNY     63  22  20 CALM      30.34F
LA JUNTA       SUNNY     65  25  22 VRB3      30.34F
LAMAR          SUNNY     68  27  21 N6        30.30F
SPRINGFIELD      N/A     64  25  22 N12       30.32F
$$



USA.gov is the U.S. government's official web portal to all federal, state and local government web resources and services.